Zurück zum Katalog

NOAA 16 DEB

AktivSSO
NORAD 41204·DEBRIS·🇺🇸 United States

Gestartet Sep 21, 2000 von Vandenberg Space Force Base

Loading…

Nächste Überflüge (nächste 24 Stunden)

TLE

AktuellSource: Space-Track

Epoche: Sep 11, 2026, 15:00 UTC

1 41204U 00055DH  26254.62527399  .00001520  00000-0  71050-3 0  9997
2 41204  98.6992 317.0608 0018809 336.5907  23.4413 14.21707146554600

Verfolge NOAA 16 DEB in Echtzeit mit AllMySat

Download on the App Store